Location: Mountain View
(37.3861°N, 122.0839°W)
Time: 08:16:56
(UTC-07:00)

Envisat - Visible Passes

Search period start: 10 May 2026 00:00
Search period end: 20 May 2026 00:00
Orbit: 761 x 762 km, 98.4° (Epoch: 10 May)

Date Brightness Start Highest point End Pass type
(mag) Time Alt. Az. Time Alt. Az. Time Alt. Az.
10 May 3.3 03:29:26 10° NNE 03:34:27 61° E 03:35:38 47° SSE visible
10 May 4.8 05:10:02 10° NNW 05:12:49 15° WNW 05:15:36 10° W visible
11 May 4.6 02:52:19 10° NE 02:56:29 25° E 02:57:26 24° ESE visible
11 May 3.8 04:30:53 10° N 04:35:23 33° WNW 04:37:33 23° WSW visible
12 May 2.9 03:52:41 10° N 03:57:45 79° WNW 03:59:22 44° SSW visible
13 May 3.8 03:15:05 10° NNE 03:19:54 43° E 03:21:09 36° SE visible
13 May 4.5 04:54:50 10° NNW 04:58:29 20° WNW 05:01:17 13° WSW visible
14 May 5.0 02:38:24 10° NE 02:41:52 18° E 02:42:56 17° ESE visible
14 May 3.4 04:16:09 10° N 04:20:58 46° WNW 04:23:04 29° SW visible
15 May 3.0 03:38:10 10° NNE 03:43:15 75° ESE 03:44:51 44° S visible
15 May 5.0 05:19:32 10° NW 05:21:29 12° WNW 05:23:26 10° W visible
16 May 4.3 03:00:51 10° NE 03:05:20 31° E 03:06:38 27° SE visible
16 May 4.1 04:39:52 10° NNW 04:44:06 27° WNW 04:46:46 18° WSW visible
17 May 5.4 02:24:58 10° ENE 02:27:12 13° E 02:28:26 12° ESE visible
17 May 3.0 04:01:30 10° N 04:06:31 64° WNW 04:08:33 35° SW visible
18 May 3.5 03:23:45 10° NNE 03:28:43 53° E 03:30:20 38° SSE visible
18 May 4.7 05:04:00 10° NNW 05:07:10 17° WNW 05:10:19 10° WSW visible
19 May 4.8 02:46:47 10° NE 02:50:43 22° E 02:52:07 20° ESE visible
19 May 3.7 04:25:04 10° N 04:29:42 37° WNW 04:32:15 23° WSW visible
